This is the latest recevied weather packets stored in our database for station/object WW5JC. If no packets are shown the sender has not sent any weather packets the latest 1 day(s).
| Time | Temp. | Humidity | Pressure | Rain* | Wind** | Luminosity | Snow |
|---|---|---|---|---|---|---|---|
| 1836274778 | 22.22° C | 90% | 1018.8 hPa | 0 mm | 1.79 m/s, 101° | 0 W/m² | - |
| 1836274476 | 22.22° C | 90% | 1018.8 hPa | 0 mm | 1.34 m/s, 103° | 0 W/m² | - |
| 1836274330 | 22.22° C | 90% | 1018.9 hPa | 0 mm | 1.79 m/s, 100° | 0 W/m² | - |
| 1836274174 | 22.22° C | 90% | 1018.7 hPa | 0 mm | 1.34 m/s, 96° | 0 W/m² | - |
| 1836273869 | 22.22° C | 89% | 1018.6 hPa | 0 mm | 0.89 m/s, 92° | 0 W/m² | - |
| 1778049155 | 13.89° C | 85% | 1011.2 hPa | 0 mm | 2.68 m/s, 356° | 0 W/m² | - |
| 1778048854 | 13.89° C | 85% | 1011.1 hPa | 0 mm | 3.58 m/s, 346° | 0 W/m² | - |
| 1778048550 | 13.89° C | 85% | 1011.2 hPa | 0 mm | 3.13 m/s, 343° | 0 W/m² | - |
| 1778048245 | 13.89° C | 85% | 1011.2 hPa | 0 mm | 1.79 m/s, 2° | 0 W/m² | - |
| 1778047943 | 13.89° C | 85% | 1011.2 hPa | 0 mm | 1.79 m/s, 347° | 0 W/m² | - |
| 1778047642 | 13.89° C | 85% | 1011.1 hPa | 0 mm | 3.13 m/s, 350° | 0 W/m² | - |
| 1778047338 | 13.89° C | 85% | 1010.8 hPa | 0 mm | 1.79 m/s, 326° | 0 W/m² | - |
| 1778047035 | 13.89° C | 85% | 1010.9 hPa | 0 mm | 2.68 m/s, 316° | 0 W/m² | - |
| 1778046732 | 13.89° C | 85% | 1010.8 hPa | 0 mm | 2.68 m/s, 329° | 0 W/m² | - |
| 1778046429 | 13.89° C | 86% | 1010.9 hPa | 0 mm | 3.58 m/s, 353° | 0 W/m² | - |
| 1778046125 | 13.89° C | 86% | 1011 hPa | 0 mm | 1.79 m/s, 305° | 0 W/m² | - |
| 1778045823 | 13.89° C | 86% | 1010.9 hPa | 0 mm | 0.89 m/s, 306° | 0 W/m² | - |
| 1778045522 | 13.89° C | 86% | 1010.7 hPa | 0 mm | 1.79 m/s, 355° | 0 W/m² | - |
| 1778045219 | 14.44° C | 86% | 1010.7 hPa | 0 mm | 0.89 m/s, 270° | 0 W/m² | - |
| 1778044918 | 14.44° C | 86% | 1010.9 hPa | 0 mm | 3.13 m/s, 310° | 0 W/m² | - |
| 1778044614 | 14.44° C | 86% | 1010.9 hPa | 0 mm | 2.68 m/s, 288° | 0 W/m² | - |
| 1778044310 | 14.44° C | 86% | 1010.9 hPa | 0 mm | 3.58 m/s, 339° | 0 W/m² | - |
| 1778044009 | 14.44° C | 86% | 1010.8 hPa | 0 mm | 2.24 m/s, 339° | 0 W/m² | - |
| 1778043706 | 15° C | 86% | 1011 hPa | 0 mm | 1.79 m/s, 356° | 0 W/m² | - |
| 1778043402 | 15° C | 86% | 1010.8 hPa | 0 mm | 1.79 m/s, 354° | 0 W/m² | - |
* Rain latest hour (hover to see other rain measurements)
** Current wind speed in m/s (hover to see current wind gust speed)